Tracking 25710 objects as of 6-Jul-2022
HD Live streaming from Space Station
objects crossing your sky now

STARLINK-3074

Track STARLINK-3074 now!
10-day predictions
STARLINK-3074 is classified as:


NORAD ID: 49170
Int'l Code: 2021-082AS
Perigee: 577.3 km
Apogee: 581.1 km
Inclination: 70.0 °
Period: 96.1 minutes
Semi major axis: 6950 km
RCS: Unknown
Launch date: September 14, 2021
Source: United States (US)
Launch site: AIR FORCE WESTERN TEST RANGE (AFWTR)
aabbcc
Your satellite tracking list
Your tracking list is empty




NASA's NSSDC Master Catalog

Two Line Element Set (TLE):
1 49170U 21082AS  22187.09557826  .00000369  00000-0  38709-4 0  9995
2 49170  69.9990  79.5984 0002718 263.4051  96.6799 14.98330679 44875
Source of the keplerian elements: AFSPC